Location: Beetenbrück
(52.8113°N, 9.5946°E)
Time: 16:15:17
(UTC+00:00)

TSX-5 - Pass Details

Date: 14 April 2026
Orbit: 387 x 998 km, 68.9° (Epoch: 9 May)

Event Time Altitude Azimuth Distance (km) Brightness Sun altitude
Rises 21:13:26 0° 220° (SW) 3,196 7.6 -21.8°
Reaches altitude 10° 21:16:02 10° 223° (SW) 2,169 6.7 -22.0°
Maximum altitude 21:20:52 69° 307° (NW) 658 4.3 -22.4°
Drops below altitude 10° 21:24:53 10° 31° (NNE) 1,804 6.8 -22.7°
Sets 21:26:53 0° 34° (NE) 2,613 7.6 -22.9°
